GPS BIIA-10 (PRN 32) 1 20959U 90103A 12038.83714711 .00000062 00000-0 10000-3 0 4520 2 20959 54.5776 243.9599 0121016 323.4449 35.7868 2.00553775155273 GPS BIIA-14 (PRN 26) 1 22014U 92039A 12038.63452475 -.00000027 00000-0 10000-3 0 2742 2 22014 56.4116 303.7407 0204765 67.0057 295.1975 2.00566400137009 GPS BIIA-15 (PRN 27) 1 22108U 92058A 12039.23310865 -.00000064 00000-0 10000-3 0 1931 2 22108 56.2617 356.6594 0221316 294.8172 62.8917 2.00577834142194 GPS BIIA-21 (PRN 09) 1 22700U 93042A 12039.26594266 -.00000063 00000-0 10000-3 0 5152 2 22700 56.4054 358.1813 0169536 91.9452 269.9945 2.00568315136358 GPS BIIA-22 (PRN 30) 1 22779U 93054A 12037.01010151 -.00000001 00000-0 10000-3 0 1178 2 22779 54.9201 53.2566 0106253 88.3337 272.9186 2.00571108135060 GPS BIIA-23 (PRN 04) 1 22877U 93068A 12039.40669126 .00000033 00000-0 10000-3 0 8709 2 22877 53.7360 178.9175 0098406 46.6853 314.0855 2.00549834134008 GPS BIIA-24 (PRN 06) 1 23027U 94016A 12039.10174249 .00000015 00000-0 10000-3 0 8323 2 23027 53.7097 115.7112 0070214 323.4489 36.1319 2.00560094131309 GPS BIIA-25 (PRN 03) 1 23833U 96019A 12039.11655006 .00000015 00000-0 10000-3 0 309 2 23833 53.3105 111.3695 0147898 66.9076 294.7072 2.00560047116288 GPS BIIA-26 (PRN 10) 1 23953U 96041A 12037.98133745 .00000068 00000-0 10000-3 0 5203 2 23953 54.2468 240.1702 0109866 41.6045 319.2724 2.00564275114059 GPS BIIR-2 (PRN 13) 1 24876U 97035A 12038.99443248 -.00000027 00000-0 10000-3 0 9868 2 24876 56.5513 304.0484 0044808 112.3959 248.1408 2.00557811106600 GPS BIIA-28 (PRN 08) 1 25030U 97067A 12039.12269470 -.00000057 00000-0 10000-3 0 9352 2 25030 57.1633 4.3461 0121647 190.6937 169.0487 2.00559360104506 GPS BIIR-3 (PRN 11) 1 25933U 99055A 12038.74658647 .00000015 00000-0 10000-3 0 4301 2 25933 50.8808 163.6150 0125890 58.5737 302.6138 2.00562407 90418 GPS BIIR-4 (PRN 20) 1 26360U 00025A 12038.86415726 .00000062 00000-0 10000-3 0 5175 2 26360 53.3417 236.5060 0049116 72.4411 288.1285 2.00551298 86116 GPS BIIR-5 (PRN 28) 1 26407U 00040A 12039.20969662 .00000009 00000-0 10000-3 0 4682 2 26407 56.0172 61.6281 0180409 254.4646 103.5985 2.00559837 84797 GPS BIIR-6 (PRN 14) 1 26605U 00071A 12038.81093806 -.00000025 00000-0 10000-3 0 4858 2 26605 56.1451 302.5655 0064065 243.3095 116.0979 2.00553232 82382 GPS BIIR-7 (PRN 18) 1 26690U 01004A 12038.67030627 .00000062 00000-0 10000-3 0 3584 2 26690 53.3275 239.5978 0129680 234.9598 123.8542 2.00564094 80798 GPS BIIR-8 (PRN 16) 1 27663U 03005A 12039.04161653 .00000009 00000-0 10000-3 0 7804 2 27663 56.1122 61.2399 0064115 353.2488 6.7292 2.00572297 66151 GPS BIIR-9 (PRN 21) 1 27704U 03010A 12038.59341011 .00000030 00000-0 10000-3 0 6794 2 27704 53.3705 179.3334 0186646 229.0700 129.2615 2.00564438 64936 GPS BIIR-10 (PRN 22) 1 28129U 03058A 12038.72295648 .00000061 00000-0 10000-3 0 2540 2 28129 53.1875 239.8018 0059377 246.7247 112.6886 2.00560829 59645 GPS BIIR-11 (PRN 19) 1 28190U 04009A 12039.16563938 .00000016 00000-0 10000-3 0 2432 2 28190 54.9931 123.9473 0078073 6.7199 353.4264 2.00555698 57828 GPS BIIR-12 (PRN 23) 1 28361U 04023A 12038.95417584 -.00000022 00000-0 10000-3 0 592 2 28361 55.0891 299.6922 0075698 188.3889 171.5537 2.00562723 55904 GPS BIIR-13 (PRN 02) 1 28474U 04045A 12038.44785003 .00000029 00000-0 10000-3 0 9460 2 28474 53.7893 177.9794 0108987 196.0343 163.5749 2.00567681 53250 GPS BIIRM-1 (PRN 17) 1 28874U 05038A 12039.29756396 .00000018 00000-0 10000-3 0 2094 2 28874 55.1420 120.8852 0072460 226.3344 133.1101 2.00568911 46694 GPS BIIRM-2 (PRN 31) 1 29486U 06042A 12037.91384138 -.00000063 00000-0 10000-3 0 5654 2 29486 56.1934 359.8933 0082292 306.7450 52.5005 2.00575900 39363 GPS BIIRM-3 (PRN 12) 1 29601U 06052A 12039.35355678 .00000007 00000-0 10000-3 0 6233 2 29601 56.0613 60.1934 0038605 352.7017 7.3071 2.00574888 38305 GPS BIIRM-4 (PRN 15) 1 32260U 07047A 12038.67507675 -.00000020 00000-0 00000+0 0 3286 2 32260 54.2496 297.7511 0042702 357.9333 2.1152 2.00553905 31683 GPS BIIRM-5 (PRN 29) 1 32384U 07062A 12038.48762087 .00000012 00000-0 10000-3 0 3655 2 32384 55.1679 121.4042 0023583 289.5786 70.2163 2.00566596 30400 GPS BIIRM-6 (PRN 07) 1 32711U 08012A 12039.07833062 -.00000063 00000-0 10000-3 0 1412 2 32711 55.9019 359.7105 0051297 190.8685 169.0188 2.00569823 28622 GPS BIIRM-8 (PRN 05) 1 35752U 09043A 12039.04391240 .00000064 00000-0 10000-3 0 8810 2 35752 54.5397 238.8541 0026774 12.3363 347.7621 2.00572932 18203 GPS BIIF-1 (PRN 25) 1 36585U 10022A 12039.39501591 .00000003 00000-0 10000-3 0 7164 2 36585 55.4213 58.3104 0010636 28.3342 331.7821 2.00552800 12457 GPS BIIF-2 (PRN 01) 1 37753U 11036A 12039.27739188 .00000034 00000-0 00000+0 0 1758 2 37753 55.0132 178.5976 0003718 39.8142 320.1705 2.00565037 4136